Regional Weather Roundup
Issued by NWS

Home | Current Version | Previous Version | Graphics & Text | Print | Product List | Glossary On
Versions: 1 2 3 4 5 6 7 8 9 10 11 12 13 14 15 16 17 18 19 20 21 22 23 24 25 26 27 28 29 30 31 32 33 34 35 36 37 38 39 40 41 42 43 44 45 46 47 48 49 50
000
ASUS45 KBOI 180310
RWRID
WEATHER ROUNDUP FOR IDAHO
NATIONAL WEATHER SERVICE BOISE ID
800 PM MST WED DEC 17 2014

NOTE: "FAIR" INDICATES FEW OR NO CLOUDS BELOW 12000 FEET
WITH NO SIGNIFICANT WEATHER AND/OR OBSTRUCTIONS TO VISIBILITY

IDZ012-014-180400-
SOUTHWEST IDAHO


CITY           SKY/WX    TMP DP  RH WIND       PRES   REMARKS
BOISE          CLOUDY    39  33  79 SE5       30.00R
CALDWELL       MOCLDY    37  28  70 CALM      30.02R
MOUNTAIN HOME  CLOUDY    38  33  84 SE8       30.01R WCI  32
$$

IDZ016-017-180400-
SOUTHCENTRAL IDAHO


CITY           SKY/WX    TMP DP  RH WIND       PRES   REMARKS
BURLEY         PTCLDY    31  27  85 E3        30.01R
JEROME         CLOUDY    34  28  79 E10       30.02R WCI  26
TWIN FALLS     CLEAR     33  27  78 S9        30.01R WCI  25
$$

IDZ019>023-180400-
SOUTHEAST IDAHO


CITY           SKY/WX    TMP DP  RH WIND       PRES   REMARKS
IDAHO FALLS    CLEAR     21  19  92 CALM      30.03R FOG
POCATELLO      CLEAR     27  27 100 SW3       30.04R
REXBURG        CLOUDY    29  28  96 CALM      30.02R FOG
$$

IDZ006-010-011-018-031-032-180400-
CENTRAL IDAHO MOUNTAINS


CITY           SKY/WX    TMP DP  RH WIND       PRES   REMARKS
MCCALL         CLOUDY    32  30  92 CALM      29.94R
HAILEY         CLOUDY    27  25  93 NW7       30.03R WCI  19
STANLEY          N/A     26  19  74 CALM      29.99S
SALMON         PTCLDY    21  18  86 CALM      30.03R
CHALLIS        CLEAR     19  17  92 CALM      30.02R
$$

IDZ002-004-006-007-026-180400-
NORTHERN IDAHO


CITY           SKY/WX    TMP DP  RH WIND       PRES   REMARKS
LEWISTON       CLOUDY    41  35  79 E6        29.94R
LOWELL           N/A     36  33  89 NW3       30.00S
COEUR D`ALENE  CLOUDY    34  30  86 NE8       29.94S WCI  27
MULLAN PASS    FLURRIES  27  26  96 VRB5      29.87S WCI  22
$$



USA.gov is the U.S. government's official web portal to all federal, state and local government web resources and services.